CZ-3B DEB, 40179

Orbit data source: Space-Track

CZ-3B DEB, 40179 is space debris in HEO originally from a launch on Mon, 19 Dec 2011 UTC launched from the Xichang Space Center, China (XSC). Debris objects in space refer to the collection of defunct objects orbiting the Earth. Examples of debris include non-operational satellites, rocket bodies, and fragments generated from explosions, collisions, or faulty payload assembly.

Loading next visibility...
Identifier
40179, 2011-077C
Orbit
HEO
Country
Flag of CNCN / PRC
Related business
Manufacturer
CALT
Mission
Spacecraft
Bus & Motor
Unknown
Mass
Unknown
Launch date (UTC)
2011-12-19 (15 years ago)
Launch vehicle
Unknown
Launch site
Xichang Space Center, China (XSC)
Object type
Payload
Rocket body
Debris
Shape & HBR
Unknown shape, 0.3 m
Radar Cross Section
Medium (>0.1 m² and <1 m²)

Expand to show TLE details & history
Last TLE update: 2 days ago

TLE from 2 days ago
0 CZ-3B DEB
1 40179U 11077C   26171.22292602 -.00000191  00000-0  23054-2 0  9997
2 40179  26.1732 297.8378 7432054 148.9171 292.4991  1.91932704 88169
Epoch: 2026-06-20T05:21Z
TLE epoch observation values (Epoch: 2026-06-20T05:21:00.808Z)
Latitude
-0.00002°
Longitude
-50.9093°
Altitude
27,278.414 km
Speed
3.019 km/s
True Right ascension
19h 51m 08s
True Declination
0° 00' 00"
Sunlit
Object was in daylight at epoch
Visualization orbit readout
Latitude
Unknown
Longitude
Unknown
Altitude
Unknown
Speed
Unknown
Apparent Right ascension
Unknown
Apparent Declination
Unknown
Sunlit
N/A
Visualization observer readout
Local Sidereal Time
21:37:45
Azimuth
Unknown
Elevation
Unknown
Doppler factor
Unknown
Orbital elements
Apogee altitude
41,306.499 km
Perigee altitude
646.369 km
Semi-major axis
27,354.571 km
Eccentricity
0.74321
Inclination
26.1732°
RAAN
297.8378°
Arg. of periapsis
148.9171°
True anomaly
211.16319°
Mean anomaly
292.4991°
Eccentric anomaly
252.00057°
Mean motion
0.47973 °/min
Orbital period
750.42 mins
BSTAR
0.0023054
Loading maneuver chart data...
Computing Atmospheric mass density...
Loading historical data...
Loading historical data...
Loading historical data...
Loading historical data...
Loading historical data...
Loading historical data...
Loading historical data...

Documentation

Showing up to 5 results
|